User: anonymous   Login
Location: Unspecified
(0.0000°N, 0.0000°E)
Time: 19:18:39
(UTC+00:00)
Language:

TECSAR - Orbit

View from above orbital plane
View from above orbital plane
View from above satellite
View from above satellite

Ground track
Ground track

The orbit data is extracted from the following two-line orbital elements,

1 32476U 08002A   18035.72230140 0.00000500  00000-0  25592-4 0    03
2 32476  41.0416 297.2845 0005500  80.5139 279.4855 15.15806101    01
Epoch (UTC): 04 February 2018 17:20:06
Eccentricity: 0.0005500
inclination: 41.0416°
perigee height: 515 km
apogee height: 522 km
right ascension of ascending node: 297.2845°
argument of perigee: 80.5139°
revolutions per day: 15.15806101
mean anomaly at epoch: 279.4855°
orbit number at epoch: 0

The dashed part of the orbit path shows where the satellite is in the earth's shadow,  

DLR